Location: Bieg
(49.3499°N, 10.3835°E)
Time: 12:15:26
(UTC+00:00)

Cosmos 2278 - Pass Details

Date: 23 May 2024
Orbit: 837 x 853 km, 71.1° (Epoch: 20 June)

Event Time Altitude Azimuth Distance (km) Brightness Sun altitude
Rises 00:33:19 0° 331° (NNW) 3,431 7.5 -17.9°
Reaches altitude 10° 00:35:47 10° 332° (NNW) 2,493 6.7 -17.8°
Maximum altitude 00:41:32 84° 61° (ENE) 865 3.7 -17.4°
Enters shadow 00:46:59 11° 150° (SSE) 2,378 5.7 -17.1°
